Regional Weather Roundup
Issued by NWS Kansas City/Pleasant Hill, MO

Home | Current Version | Previous Version | Text Only | Print | Product List | Glossary On
Versions: 1 2 3 4 5 6 7 8 9 10 11 12 13 14 15 16 17 18 19 20 21 22 23 24 25 26 27 28 29 30 31 32 33 34 35 36 37 38 39 40 41 42 43 44 45 46 47 48 49 50
022
ASUS43 KEAX 271710
RWREAX

WEATHER ROUNDUP FOR EASTERN KANSAS AND NORTHWEST MISSOURI
NATIONAL WEATHER SERVICE KANSAS CITY/PLEASANT HILL MO
1200 PM CDT WED JUL 27 2016

KSZ040-057-103>105-MOZ028-029-037-043-271800-
...KANSAS CITY METROPOLITAN AREA...

CITY           SKY/WX    TMP DP  RH WIND       PRES   REMARKS
K.C. INTL      PTSUNNY   84  70  62 CALM      30.01R
K.C. DOWNTOWN  SUNNY     88  68  51 E5        29.98R HX  91
LEES SUMMIT    SUNNY     85  70  60 SE6       30.00S
OLATHE - IXD   SUNNY     86  68  54 E5        30.00S
OLATHE - OJC   SUNNY     84  68  58 E5        30.00R
LAWRENCE       SUNNY     86  69  56 CALM      30.00R HX  90

$$

MOZ001>008-011>017-020>025-030>033-038>040-044>046-053-054-271800-
...NORTHERN AND CENTRAL MISSOURI...

CITY           SKY/WX    TMP DP  RH WIND       PRES   REMARKS
ST. JOSEPH     SUNNY     83  69  62 S5        30.01R
MOSBY          MOSUNNY   84  68  58 S5        29.99R
WHITEMAN AFB   MOSUNNY   85  75  70 VRB3      29.97F HX  93
CLINTON        MOSUNNY   84  75  74 CALM      29.99F HX  92
SEDALIA        SUNNY     87  74  64 CALM      30.00F HX  95
WARSAW         NOT AVBL
CHILLICOTHE      N/A     87  71  58 VRB6      30.00S HX  93
KIRKSVILLE     MOSUNNY   86  69  56 VRB7      30.01F HX  90

$$

MOZ041-047>049-056>058-063>065-088>090-097-271800-
...EASTERN AND SOUTHERN MISSOURI...

CITY           SKY/WX    TMP DP  RH WIND       PRES   REMARKS
ST. LOUIS INTL PTSUNNY   87  72  60 VRB3      30.00S HX  93
SPIRIT OF STL  CLOUDY    86  76  71 CALM      29.98S HX  96
COLUMBIA       PTSUNNY   84  74  71 VRB5      30.00S HX  91
JEFFERSON CITY MOSUNNY   86  72  62 CALM      29.99S HX  92
ROLLA          CLOUDY    82  73  74 W5        30.01S
OSAGE BEACH    PTSUNNY   84  75  74 S5        30.00R HX  92
SPRINGFIELD    PTSUNNY   77  72  84 SE3       30.01S
BRANSON        PTSUNNY   82  73  74 CALM      30.03S
JOPLIN         CLOUDY    85  76  74 VRB3      29.99S HX  94
WEST PLAINS    PTSUNNY   85  73  67 CALM      30.04S HX  91

$$

IAZ060-094-KSZ022-034>040-054-083-096-NEZ052-066-093-271800-
...KANSAS...SOUTHEAST NEBRASKA AND IOWA...

CITY           SKY/WX    TMP DP  RH WIND       PRES   REMARKS
TOPEKA         SUNNY     87  70  56 CALM      30.00R HX  92
MANHATTAN      CLOUDY    85  71  63 SW3       30.01S HX  90
EMPORIA        PTSUNNY   85  71  63 SE6       30.01R HX  90
CHANUTE        MOSUNNY   86  74  67 CALM      29.98S HX  94
WICHITA        PTSUNNY   86  72  62 VRB3      29.99S HX  92
OMAHA          MOSUNNY   85  67  54 SW10      29.98S
LINCOLN        SUNNY     85  63  47 W9        30.01S
FALLS CITY     MOSUNNY   85  73  67 N7        30.02S HX  91
LAMONI         CLOUDY    81  69  67 CALM      30.03R
DES MOINES     CLOUDY    80  69  69 S6        30.01R

$$





USA.gov is the U.S. government's official web portal to all federal, state and local government web resources and services.